Location: Unspecified
(0.0000°N, 1.0000°E)
Time: 15:29:50
(UTC+02:00)

Amateur Radio Satellites - All Passes

Search period start: 29 April 2017 14:59
Search period end: 30 April 2017 14:59
Location: Unspecified, 0.0000°N, 1.0000°E

Satellite Date Start Highest point End Downlink Frequencies (MHz)
Time Altitude Azimuth
PCSat 29 Apr 15:12:12 15:13:01 10° 250° (WSW) 15:13:50 145.827
Gurwin Techsat 1B 29 Apr 15:19:43 15:24:59 65° 78° (ENE) 15:30:15 435.225
UKube-1 29 Apr 15:22:43 15:26:27 30° 282° (WNW) 15:30:13 .
BEESAT 29 Apr 15:44:56 15:48:19 19° 103° (ESE) 15:51:41 436.000
SRMSAT 29 Apr 16:14:19 16:20:15 68° 339° (NNW) 16:26:12 437.500
ITUPSAT 1 29 Apr 16:26:05 16:30:50 68° 102° (ESE) 16:35:36 437.325
NO-84 29 Apr 16:27:37 16:29:21 12° 124° (SE) 16:31:02 435.350 FM
ITAMSAT 1 29 Apr 16:28:01 16:32:49 37° 77° (ENE) 16:37:34 435.822/435.867
JUGNU 29 Apr 16:39:00 16:42:22 15° 347° (NNW) 16:45:45 437.505
MOZHAYETS 4 29 Apr 16:48:52 16:53:24 55° 102° (ESE) 16:57:56
AO-7 29 Apr 16:50:19 16:58:29 61° 74° (ENE) 17:06:35 .
YUBILEINY 29 Apr 16:58:40 17:07:23 69° 87° (E) 17:16:09 435.215
SO-50 29 Apr 17:14:05 17:18:23 45° 68° (ENE) 17:22:46 436.795
BEESAT 29 Apr 17:22:11 17:25:48 22° 282° (WNW) 17:29:27 436.000
ISS 29 Apr 17:22:47 17:25:14 20° 54° (NE) 17:27:43 437.550
CUBESAT XI-V 29 Apr 17:48:02 17:52:17 35° 102° (ESE) 17:56:33 437.345
NO-84 29 Apr 18:02:52 18:06:52 36° 301° (WNW) 18:10:39 435.350 FM
SRMSAT 29 Apr 18:04:42 18:09:37 26° 342° (NNW) 18:14:34 437.500
ITAMSAT 1 29 Apr 18:09:36 18:11:58 13° 257° (WSW) 18:14:21 435.822/435.867
Tancredo 1 29 Apr 18:14:15 18:17:03 31° 234° (SW) 18:19:51 437.200
KKS-1 29 Apr 18:16:21 18:20:44 86° 286° (WNW) 18:25:10 437.445
DOVE 4 29 Apr 18:19:02 18:20:25 11° 78° (ENE) 18:21:48 437.250
STARS 29 Apr 18:39:41 18:43:59 67° 102° (ESE) 18:48:20 437.465
RS-15 29 Apr 18:43:02 18:54:40 71° 69° (ENE) 19:05:42 29.354- 29.394
AO-7 29 Apr 18:45:55 18:50:48 17° 253° (WSW) 18:55:42 .
YUBILEINY 29 Apr 19:00:06 19:03:48 13° 267° (W) 19:07:33 435.215
ISS 29 Apr 19:00:13 19:01:32 12° 234° (SW) 19:02:51 437.550
CUBESAT XI-V 29 Apr 19:28:15 19:29:23 11° 282° (WNW) 19:30:30 437.345
XW-2D 29 Apr 19:29:50 19:33:27 48° 79° (E) 19:37:03 145.860 - 145.880
CUTE-I 29 Apr 19:36:19 19:41:31 51° 78° (ENE) 19:46:40 437.470
XW-2B 29 Apr 19:36:46 19:40:28 61° 79° (E) 19:44:08 145.730 - 145.750
KAITUO 1B 29 Apr 19:39:06 19:42:40 48° 79° (E) 19:46:13 145.475/437.950
XW-2C 29 Apr 19:48:47 19:52:32 79° 259° (W) 19:56:15 145.795 - 145.815
LilacSat-2 29 Apr 19:51:18 19:55:03 67° 260° (W) 19:58:46 437.200
DOVE 4 29 Apr 19:52:44 19:57:44 47° 258° (WSW) 20:02:48 437.250
SRMSAT 29 Apr 19:56:50 19:59:30 13° 350° (N) 20:02:10 437.500
CUTE 1.7 + AOD 2 29 Apr 20:06:11 20:07:04 11° 78° (ENE) 20:07:57 437.475
XW-2F 29 Apr 20:12:17 20:15:40 33° 259° (WSW) 20:19:01 145.980 - 146.000
NUDT-PHONESAT 29 Apr 20:14:14 20:17:41 39° 259° (WSW) 20:21:07 437.300
M-CUBED/EXP-1 PRIME 29 Apr 20:19:38 20:21:07 12° 104° (ESE) 20:22:34 437.505
JUGNU 29 Apr 20:20:41 20:22:36 11° 8° (N) 20:24:31 437.505
HO-68 29 Apr 20:27:06 20:33:32 37° 76° (ENE) 20:39:57 435.675
RS-15 29 Apr 20:59:43 21:06:35 18° 248° (WSW) 21:13:22 29.354- 29.394
XW-2A 29 Apr 21:08:23 21:11:46 62° 259° (W) 21:15:04 145.665 - 145.685
STRAND 1 29 Apr 21:14:04 21:19:06 64° 282° (WNW) 21:24:12 437.568
AAUSAT CUBESAT 2 29 Apr 21:16:08 21:19:33 26° 79° (E) 21:23:00 437.432
UWE-3 29 Apr 21:21:24 21:25:11 28° 79° (E) 21:28:51 435.000/436.395/437.385
O/OREOS (USA 219) 29 Apr 21:35:31 21:39:37 34° 76° (ENE) 21:43:40 437.305
CUTE 1.7 + AOD 2 29 Apr 21:39:02 21:42:38 28° 259° (WSW) 21:46:13 437.475
CUBEBUG 2 29 Apr 21:40:27 21:45:01 77° 258° (WSW) 21:49:25 437.445
SEEDS 29 Apr 21:52:52 21:56:32 30° 259° (WSW) 22:00:12 437.485
M-CUBED/EXP-1 PRIME 29 Apr 21:53:15 21:55:21 15° 287° (WNW) 21:57:24 437.505
JUGNU 29 Apr 22:07:53 22:12:25 22° 17° (NNE) 22:16:57 437.505
ZACube-1 29 Apr 22:09:06 22:13:25 67° 78° (ENE) 22:17:35 437.345
AO-73 29 Apr 22:14:03 22:18:21 70° 78° (ENE) 22:22:31 145.935
HO-68 29 Apr 22:15:27 22:20:55 24° 255° (WSW) 22:26:25 435.675
Oscar 11 29 Apr 22:25:33 22:29:52 80° 77° (ENE) 22:34:08 .
AAUSAT CUBESAT 2 29 Apr 22:53:33 22:54:45 11° 258° (WSW) 22:55:57 437.432
AO-85 29 Apr 22:54:07 22:57:21 20° 70° (ENE) 23:00:46 145.980
TIGRISAT 29 Apr 22:57:34 23:00:47 20° 103° (ESE) 23:04:04 435.000
UWE-3 29 Apr 22:59:42 23:01:19 12° 257° (WSW) 23:02:55 435.000/436.395/437.385
OBJECT BX 29 Apr 22:59:55 23:03:08 30° 79° (ENE) 23:06:19 145.990 - 145.960
DELFI C3 29 Apr 23:05:50 23:09:45 60° 78° (ENE) 23:13:39 145.870
UNISAT 6 29 Apr 23:18:45 23:22:57 44° 102° (ESE) 23:27:16 437.425
PRISM 29 Apr 23:22:45 23:26:50 85° 281° (WNW) 23:30:55 437.425
SRMSAT 29 Apr 23:37:05 23:40:09 14° 11° (N) 23:43:12 437.500
FO-29 29 Apr 23:50:39 23:56:28 80° 103° (ESE) 00:03:07 435.910
LO-87 29 Apr 23:53:56 23:56:07 15° 79° (ENE) 23:58:17 145.935 - 145.965
JUGNU 29 Apr 23:55:51 00:01:42 55° 21° (NNE) 00:07:34 437.505
AIST 2D 30 Apr 00:16:12 00:18:36 17° 101° (ESE) 00:21:00 435.315
ESTCUBE 1 30 Apr 00:19:53 00:23:08 20° 78° (ENE) 00:26:23 437.505/2401.250
POLYITAN 1 30 Apr 00:29:48 00:31:54 13° 102° (ESE) 00:33:59 437.675
TIGRISAT 30 Apr 00:34:12 00:37:12 18° 281° (WNW) 00:40:16 435.000
AO-85 30 Apr 00:34:24 00:37:32 19° 246° (WSW) 00:40:49 145.980
QB50P2 30 Apr 00:35:43 00:38:41 19° 102° (ESE) 00:41:39 145.880/145.840
BEESAT 3 30 Apr 00:45:02 00:48:57 80° 68° (ENE) 00:52:49 437.485
BEESAT 2 30 Apr 00:52:03 00:55:21 24° 68° (ENE) 00:58:36 435.950
NANOSAT C BR1 30 Apr 00:53:40 00:57:13 27° 102° (ESE) 01:00:47 145.865
SPROUT 30 Apr 00:58:35 00:59:31 11° 78° (ENE) 01:00:26 437.525
DUCHIFAT 1 30 Apr 01:21:01 01:25:08 61° 101° (ESE) 01:29:18 145.980
EO-79 30 Apr 01:22:57 01:27:09 87° 97° (E) 01:31:24 145.935-145.965
SRMSAT 30 Apr 01:24:47 01:29:56 30° 18° (NNE) 01:35:05 437.500
LO-87 30 Apr 01:27:19 01:29:17 14° 258° (WSW) 01:31:14 145.935 - 145.965
50 SAT 30 Apr 01:38:51 01:41:24 19° 78° (ENE) 01:43:56 437.505
JUGNU 30 Apr 01:44:55 01:50:47 54° 201° (SSW) 01:56:38 437.505
AIST 2D 30 Apr 01:50:19 01:51:32 11° 281° (W) 01:52:46 435.315
VELOX 1 30 Apr 01:53:41 01:58:09 81° 76° (ENE) 02:02:35 145.980
ESTCUBE 1 30 Apr 01:56:36 01:59:40 18° 258° (WSW) 02:02:44 437.505/2401.250
UKube-1 30 Apr 01:56:47 01:59:06 14° 78° (ENE) 02:01:25 .
PCSat 30 Apr 02:00:46 02:06:00 52° 289° (WNW) 02:11:14 145.827
POLYITAN 1 30 Apr 02:04:03 02:07:23 23° 282° (WNW) 02:10:46 437.675
BUGSAT 1 30 Apr 02:09:17 02:13:16 70° 101° (E) 02:17:20 437.445
QB50P2 30 Apr 02:11:30 02:14:12 17° 282° (WNW) 02:16:55 145.880/145.840
Gurwin Techsat 1B 30 Apr 02:21:59 02:23:45 12° 103° (ESE) 02:25:31 435.225
NANOSAT C BR1 30 Apr 02:31:23 02:32:40 11° 282° (WNW) 02:33:56 145.865
SPROUT 30 Apr 02:31:24 02:35:09 29° 258° (WSW) 02:38:52 437.525
BEESAT 2 30 Apr 02:31:41 02:32:50 11° 248° (WSW) 02:33:59 435.950
DX 1 30 Apr 02:34:31 02:38:54 87° 82° (E) 02:43:17 434.975-435.025
SRMSAT 30 Apr 03:13:17 03:19:16 79° 21° (NNE) 03:25:14 437.500
Oscar 19 30 Apr 03:29:25 03:34:22 47° 283° (WNW) 03:39:19 437.125/150
UKube-1 30 Apr 03:31:26 03:34:51 23° 258° (WSW) 03:38:17 .
JUGNU 30 Apr 03:35:31 03:40:05 22° 196° (SSW) 03:44:39 437.505
YUBILEINY 30 Apr 03:40:31 03:44:36 14° 93° (E) 03:48:39 435.215
Gurwin Techsat 1B 30 Apr 03:58:24 04:03:23 43° 283° (WNW) 04:08:24 435.225
BEESAT 30 Apr 04:05:50 04:10:12 36° 78° (ENE) 04:14:32 436.000
ITUPSAT 1 30 Apr 04:48:27 04:53:09 60° 258° (WSW) 04:57:49 437.325
ISS 30 Apr 04:57:44 04:59:19 13° 126° (SE) 05:00:53 437.550
ITAMSAT 1 30 Apr 05:02:29 05:07:39 82° 283° (WNW) 05:12:52 435.822/435.867
SRMSAT 30 Apr 05:03:00 05:08:30 38° 200° (SSW) 05:14:00 437.500
MOZHAYETS 4 30 Apr 05:05:33 05:10:07 86° 260° (W) 05:14:40
AO-7 30 Apr 05:16:23 05:24:43 86° 286° (WNW) 05:33:07 .
SO-50 30 Apr 05:26:29 05:31:14 87° 112° (ESE) 05:35:53 436.795
JUGNU 30 Apr 05:27:55 05:29:55 12° 188° (S) 05:31:55 437.505
YUBILEINY 30 Apr 05:32:25 05:41:01 65° 273° (W) 05:49:35 435.215
Tancredo 1 30 Apr 05:43:41 05:46:47 68° 306° (NW) 05:49:50 437.200
BEESAT 30 Apr 05:46:25 05:47:40 11° 257° (WSW) 05:48:56 436.000
NO-84 30 Apr 05:47:35 05:50:15 32° 237° (WSW) 05:53:05 435.350 FM
CUBESAT XI-V 30 Apr 06:05:55 06:10:29 63° 78° (ENE) 06:15:03 437.345
RS-15 30 Apr 06:24:13 06:35:25 60° 110° (ESE) 06:47:09 29.354- 29.394
KKS-1 30 Apr 06:28:48 06:33:13 57° 258° (WSW) 06:37:36 437.445
ISS 30 Apr 06:33:13 06:35:37 19° 306° (NW) 06:38:00 437.550
DOVE 4 30 Apr 06:38:40 06:40:56 14° 102° (ESE) 06:43:12 437.250
STARS 30 Apr 06:50:23 06:54:51 85° 262° (W) 06:59:15 437.465
SRMSAT 30 Apr 06:54:25 06:58:07 17° 194° (SSW) 07:01:50 437.500
XW-2D 30 Apr 07:23:23 07:26:59 38° 101° (ESE) 07:30:35 145.860 - 145.880
XW-2B 30 Apr 07:30:19 07:34:00 48° 101° (E) 07:37:44 145.730 - 145.750
KAITUO 1B 30 Apr 07:31:21 07:34:51 36° 101° (ESE) 07:38:22 145.475/437.950
XW-2C 30 Apr 07:42:15 07:46:05 80° 102° (ESE) 07:49:57 145.795 - 145.815
LilacSat-2 30 Apr 07:45:24 07:49:15 85° 280° (W) 07:53:09 437.200
XW-2F 30 Apr 08:05:09 08:08:48 44° 281° (W) 08:12:28 145.980 - 146.000
NUDT-PHONESAT 30 Apr 08:05:23 08:09:04 57° 281° (W) 08:12:46 437.300
STRAND 1 30 Apr 08:09:18 08:12:54 19° 77° (ENE) 08:16:28 437.568
CUTE 1.7 + AOD 2 30 Apr 08:11:07 08:13:17 14° 102° (ESE) 08:15:27 437.475
DOVE 4 30 Apr 08:15:22 08:18:24 19° 282° (WNW) 08:21:24 437.250
CUTE-I 30 Apr 08:15:32 08:20:41 54° 283° (WNW) 08:25:54 437.470
M-CUBED/EXP-1 PRIME 30 Apr 08:16:47 08:19:41 17° 73° (ENE) 08:22:39 437.505
HO-68 30 Apr 08:18:55 08:25:04 31° 105° (ESE) 08:31:12 435.675
SEEDS 30 Apr 08:24:42 08:26:14 12° 102° (ESE) 08:27:46 437.485
RS-15 30 Apr 08:38:54 08:47:35 24° 293° (WNW) 08:56:38 29.354- 29.394
SRMSAT 30 Apr 08:48:05 08:48:17 10° 184° (S) 08:48:29 437.500
XW-2A 30 Apr 08:50:55 08:54:15 57° 102° (ESE) 08:57:37 145.665 - 145.685
JUGNU 30 Apr 09:06:41 09:10:11 16° 167° (SSE) 09:13:39 437.505
AAUSAT CUBESAT 2 30 Apr 09:19:20 09:22:57 29° 102° (ESE) 09:26:33 437.432
UWE-3 30 Apr 09:31:39 09:35:46 40° 102° (ESE) 09:39:59 435.000/436.395/437.385
CUTE 1.7 + AOD 2 30 Apr 09:45:26 09:48:50 23° 282° (WNW) 09:52:15 437.475
O/OREOS (USA 219) 30 Apr 09:46:04 09:50:33 61° 104° (ESE) 09:55:04 437.305
STRAND 1 30 Apr 09:47:38 09:51:48 25° 257° (WSW) 09:55:56 437.568
M-CUBED/EXP-1 PRIME 30 Apr 09:50:21 09:53:48 23° 255° (WSW) 09:57:23 437.505
CUBEBUG 2 30 Apr 09:52:33 09:56:44 51° 281° (W) 10:01:06 437.445
SEEDS 30 Apr 09:58:06 10:01:38 26° 281° (WNW) 10:05:11 437.485
HO-68 30 Apr 10:06:28 10:12:27 29° 285° (WNW) 10:18:29 435.675
ZACube-1 30 Apr 10:18:19 10:22:43 87° 281° (WNW) 10:27:14 437.345
AO-73 30 Apr 10:22:55 10:27:18 86° 284° (WNW) 10:31:50 145.935
Oscar 11 30 Apr 10:34:05 10:38:25 76° 281° (WNW) 10:42:47 .
SRMSAT 30 Apr 10:37:03 10:38:39 11° 173° (S) 10:40:17 437.500
OBJECT BX 30 Apr 10:50:03 10:52:52 21° 102° (ESE) 10:55:41 145.990 - 145.960
JUGNU 30 Apr 10:54:20 10:59:41 35° 161° (SSE) 11:04:59 437.505
DELFI C3 30 Apr 11:04:05 11:07:58 55° 102° (ESE) 11:11:50 145.870
AO-85 30 Apr 11:06:23 11:10:58 40° 112° (ESE) 11:15:13 145.980
TIGRISAT 30 Apr 11:10:14 11:14:10 30° 79° (ENE) 11:17:59 435.000
FO-29 30 Apr 11:24:35 11:31:21 46° 79° (ENE) 11:37:19 435.910
PRISM 30 Apr 11:25:14 11:29:21 78° 256° (WSW) 11:33:29 437.425
UNISAT 6 30 Apr 11:32:01 11:36:32 70° 79° (E) 11:40:55 437.425
SRMSAT 30 Apr 12:24:21 12:28:41 21° 164° (SSE) 12:33:01 437.500
OBJECT BX 30 Apr 12:25:55 12:26:17 10° 281° (WNW) 12:26:38 145.990 - 145.960
ESTCUBE 1 30 Apr 12:33:09 12:37:07 31° 102° (ESE) 12:41:05 437.505/2401.250
POLYITAN 1 30 Apr 12:35:29 12:38:11 17° 78° (ENE) 12:40:51 437.675
BEESAT 3 30 Apr 12:36:40 12:40:29 80° 111° (ESE) 12:44:21 437.485
QB50P2 30 Apr 12:41:38 12:45:00 23° 78° (ENE) 12:48:20 145.880/145.840
JUGNU 30 Apr 12:42:52 12:48:45 85° 339° (NNW) 12:54:37 437.505
BEESAT 2 30 Apr 12:45:01 12:48:13 25° 112° (ESE) 12:51:26 435.950
TIGRISAT 30 Apr 12:48:55 12:50:31 12° 257° (WSW) 12:52:06 435.000
PCSat 30 Apr 12:54:17 12:59:02 31° 71° (ENE) 13:03:46 145.827
NANOSAT C BR1 30 Apr 12:59:10 13:02:57 32° 79° (ENE) 13:06:43 145.865
SPROUT 30 Apr 13:04:23 13:06:28 13° 102° (ESE) 13:08:33 437.525
FO-29 30 Apr 13:11:27 13:15:50 17° 254° (WSW) 13:19:57 435.910
LO-87 30 Apr 13:14:28 13:17:09 21° 281° (W) 13:19:52 145.935 - 145.965
50 SAT 30 Apr 13:24:59 13:25:35 10° 102° (ESE) 13:26:09 437.505
DUCHIFAT 1 30 Apr 13:26:21 13:30:35 75° 78° (ENE) 13:34:45 145.980
EO-79 30 Apr 13:29:02 13:33:16 76° 257° (WSW) 13:37:29 145.935-145.965
AIST 2D 30 Apr 13:35:09 13:37:39 18° 259° (W) 13:40:08 435.315
UKube-1 30 Apr 14:04:25 14:07:24 18° 102° (ESE) 14:10:23 .
VELOX 1 30 Apr 14:05:13 14:09:34 69° 281° (W) 14:13:55 145.980
POLYITAN 1 30 Apr 14:10:41 14:13:41 19° 258° (WSW) 14:16:41 437.675
ESTCUBE 1 30 Apr 14:12:03 14:13:38 12° 282° (WNW) 14:15:14 437.505/2401.250
BUGSAT 1 30 Apr 14:12:14 14:16:28 80° 76° (ENE) 14:20:36 437.445
SRMSAT 30 Apr 14:12:24 14:18:09 50° 159° (SSE) 14:23:55 437.500
QB50P2 30 Apr 14:18:21 14:20:30 14° 258° (WSW) 14:22:39 145.880/145.840
Oscar 19 30 Apr 14:24:42 14:28:59 27° 77° (ENE) 14:33:15 437.125/150
BEESAT 2 30 Apr 14:25:11 14:25:43 10° 292° (WNW) 14:26:16 435.950
JUGNU 30 Apr 14:32:44 14:37:51 31° 341° (NNW) 14:42:59 437.505
SPROUT 30 Apr 14:38:43 14:42:06 23° 282° (WNW) 14:45:29 437.525
PCSat 30 Apr 14:38:45 14:42:09 17° 250° (WSW) 14:45:33 145.827
DX 1 30 Apr 14:44:07 14:48:24 68° 282° (WNW) 14:52:42 434.975-435.025
